Flag for U.S.A. Weather past 2 weeks in Tallahassee, Florida, U.S.A.

Now
80 °F

Sunny.


Feels Like: 85 °F
Forecast: 75 / 96 °F
Wind: 5 mph from Northwest

Location: Tallahassee Regional Airport

Current Time: Aug 21, 2014 at 9:21:22 AM

Latest Report: Aug 21, 2014 at 8:53 AM


Visibility: 10 mi

Pressure: 30.14 "Hg

Humidity: 81%

Dew point: 74 °F

Location of TallahasseeLocation

Historic Weather in Tallahassee — Graph

°F

Tallahassee temperature yesterday

Maximum temperature yesterday: 96 °F (at 3:53 PM)
Minimum temperature yesterday: 73 °F (at 6:53 AM)
Average temperature yesterday: 83 °F

Past Weeks' High & Low Weather Summary

 TemperatureHumidityPressure
High99 °F (Aug 8, 3:53 PM)94% (Aug 8, 6:53 AM)30.12 "Hg (Aug 8, 6:53 AM)
Low73 °F (Aug 7, 5:53 AM)33% (Aug 16, 6:53 PM)29.90 "Hg (Aug 12, 4:53 PM)
Average82 °F75%29.99 "Hg
* Reported Aug 6 7:53 AM — Aug 21 7:53 AM, Tallahassee, Weather by CustomWeather, © 2014

Note: Actual official high and low records may vary slightly from our data, if they occured in-between our weather recording intervals... More about our weather records

Advertising

Tallahassee weather history for previous 24 hours

 ConditionsComfort  
Time TempWeatherWind HumidityBarometerVisibility
7:53 AM
Aug 21
76 °FClear.No wind88%30.12 "Hg10 mi
6:53 AM75 °FClear.No wind90%30.10 "Hg10 mi
5:53 AM76 °FClear.No wind88%30.07 "Hg10 mi
4:53 AM75 °FClear.N/A90%30.06 "Hg9 mi
3:53 AM76 °FClear.No wind88%30.07 "Hg10 mi
2:53 AM78 °FClear.No wind84%30.08 "Hg9 mi
1:53 AM78 °FClear.No wind84%30.09 "Hg10 mi
12:53 AM79 °FWarm.No wind82%30.10 "Hg10 mi
11:53 PM
Aug 20
80 °FClear.No wind79%30.10 "Hg10 mi
10:53 PM80 °FPassing clouds.5 mph79%30.09 "Hg10 mi
9:53 PM82 °FPassing clouds.No wind74%30.08 "Hg10 mi
8:53 PM84 °FScattered clouds.5 mph72%30.06 "Hg10 mi
7:53 PM86 °FBroken clouds.3 mph65%30.03 "Hg10 mi
6:53 PM87 °FBroken clouds.6 mph59%30.03 "Hg10 mi
5:53 PM89 °FBroken clouds.10 mph55%30.02 "Hg10 mi
4:53 PM96 °FPartly sunny.6 mph46%30.02 "Hg10 mi
3:53 PM96 °FPartly sunny.10 mph44%30.03 "Hg10 mi
2:53 PM94 °FPartly sunny.6 mph49%30.05 "Hg10 mi
1:53 PM93 °FPartly sunny.9 mph52%30.07 "Hg10 mi
12:53 PM92 °FPassing clouds.9 mph54%30.08 "Hg10 mi
11:53 AM90 °FPassing clouds.12 mph57%30.09 "Hg10 mi
10:53 AM85 °FPassing clouds.7 mph70%30.09 "Hg10 mi
9:53 AM83 °FScattered clouds.9 mph77%30.09 "Hg10 mi
Weather by CustomWeather, © 2014

See weather overviewHow to use our weather pages